Hourly Data Report for September 05, 2017

All times are specified in Local Standard Time (LST). Add 1 hour to adjust for Daylight Saving Time where and when it is observed.

RESOLUTE BAY A
NUNAVUT

74°43'01.000" N
94°58'10.000" W
67.70 m
2403498
71924
YRB

Download Data

Hourly Data (September 2017)
Hourly Data Report for September 5, 2017
Temp Definition
°C
Dew Point Temp Definition
°C
Rel Hum Definition
%
Wind Dir Definition
10's deg

Wind Spd Definition
km/h
Visibility Definition
km
Stn Press Definition
kPa
Hmdx Definition


Wind Chill Definition


Weather Definition


TIME
00:00 Legend Double Dagger -2.1 -3.5 90 32 25 16.1 100.75   -9 Snow Showers
01:00 Legend Double Dagger -2.4 -4.4 86 36 28 16.1 100.79   -9 LegendNANA
02:00 Legend Double Dagger -3.3 -5.5 85 33 22 16.1 100.81   -10 LegendNANA
03:00 Legend Double Dagger -3.9 -5.8 86 35 24 16.1 100.85   -11 Cloudy
04:00 Legend Double Dagger -4.5 -6.3 87 35 25 24.1 100.86   -12 LegendNANA
05:00 Legend Double Dagger -5.4 -7.4 85 35 23 24.1 100.89   -13 LegendNANA
06:00 Legend Double Dagger -5.3 -7.3 85 35 22 24.1 100.90   -12 Cloudy
07:00 Legend Double Dagger -5.4 -7.5 85 36 18 24.1 100.90   -12 LegendNANA
08:00 Legend Double Dagger -5.9 -8.2 84 34 15 24.1 100.91   -12 LegendNANA
09:00 Legend Double Dagger -5.8 -7.8 86 34 20 24.1 100.90   -13 Cloudy
10:00 Legend Double Dagger -5.6 -7.8 85 32 17 24.1 100.88   -12 LegendNANA
11:00 Legend Double Dagger -5.1 -7.2 85 33 11 24.1 100.87   -10 LegendNANA
12:00 Legend Double Dagger -5.1 -7.3 85 30 12 24.1 100.86   -10 Cloudy
13:00 Legend Double Dagger -5.2 -7.1 86 32 17 24.1 100.86   -11 LegendNANA
14:00 Legend Double Dagger -5.9 -7.8 87 33 17 24.1 100.86   -12 LegendNANA
15:00 Legend Double Dagger -5.6 -7.9 84 32 22 24.1 100.86   -13 Cloudy
16:00 Legend Double Dagger -5.1 -7.8 81 31 21 24.1 100.84   -12 LegendNANA
17:00 Legend Double Dagger -4.8 -7.5 82 33 22 24.1 100.82   -12 LegendNANA
18:00 Legend Double Dagger -4.4 -6.7 84 30 16 24.1 100.77   -10 Cloudy
19:00 Legend Double Dagger -4.0 -6.5 83 31 25 24.1 100.76   -11 LegendNANA
20:00 Legend Double Dagger -3.8 -6.0 84 32 25 24.1 100.70   -11 LegendNANA
21:00 Legend Double Dagger -4.3 -6.4 85 33 25 24.1 100.70   -11 Cloudy
22:00 Legend Double Dagger -5.5 -7.8 84 33 27 24.1 100.68   -13 LegendNANA
23:00 Legend Double Dagger -5.7 -7.5 87 33 26 24.1 100.68   -13 LegendNANA

Notes on Data Quality.

Legend

  • E = Estimated
  • M = Missing
  • NA = Not Available
  • ‡ = Partner data that is not subject to review by the National Climate Archives
Date modified: